Powrót do katalogu

GEESAT 3-03

AktywnyNaukaLEO
NORAD 61013·PAYLOAD·🇨🇳 China

Wystrzelony Sep 5, 2024 z Taiyuan Satellite Launch Center

Loading…

Następne Przeloty (najbliższe 24 godziny)

TLE

ŚwieżeSource: Space-Track

Epoka: Sep 14, 2026, 19:49 UTC

1 61013U 24159C   26257.82637332  .00001747  00000-0  23187-3 0  9991
2 61013  49.9948  26.1441 0005664 113.8178 246.3355 14.84496708110151

Śledź GEESAT 3-03 w czasie rzeczywistym z AllMySat

Download on the App Store